Location: Unspecified
(0.0000°N, 0.0000°E)
Time: 10:52:20
(UTC+02:00)

Transit 2A - Visible Passes

Search period start: 03 September 2015 00:00
Search period end: 13 September 2015 00:00
Orbit: 599 x 961 km, 66.7° (Epoch: 01 September)

Date Brightness Start Highest point End Pass type
(mag) Time Alt. Az. Time Alt. Az. Time Alt. Az.
09 Sep 7.9 22:02:22 10° SSW 22:04:58 26° SSW 22:04:58 26° SSW visible
10 Sep 6.6 21:28:47 10° S 21:34:07 47° SE 21:34:07 47° SE visible
10 Sep 9.2 23:14:41 10° WSW 23:14:47 10° W 23:14:47 10° W visible
11 Sep 7.1 20:55:31 10° S 21:00:56 31° ESE 21:03:42 22° ENE visible
11 Sep 8.3 22:39:12 10° WSW 22:44:06 23° WNW 22:44:25 23° WNW visible
12 Sep 7.6 20:22:42 10° SSE 20:26:58 20° ESE 20:31:22 10° ENE visible
12 Sep 7.7 22:04:31 10° SW 22:10:15 37° WNW 22:14:41 14° N visible
